Time,TemperatureF,DewpointF,PressureIn,WindDirection,WindDirectionDegrees,WindSpeedMPH,WindSpeedGustMPH,Humidity,HourlyPrecipIn,Conditions,Clouds,dailyrainin,SoftwareType,DateUTC
2013-02-16 00:00:00,41.0,20.2,29.50,NNW,329,2.7,3.1,43,0.00,,,0.00,LWC V2.10 B1813,2013-02-16 06:00:00,
2013-02-16 00:05:00,41.0,20.2,29.50,NNW,329,2.2,3.6,43,0.00,,,0.00,LWC V2.10 B1813,2013-02-16 06:05:00,
2013-02-16 00:10:00,41.0,20.2,29.50,NW,322,2.2,2.7,43,0.00,,,0.00,LWC V2.10 B1813,2013-02-16 06:10:00,
2013-02-16 00:15:00,41.0,20.2,29.50,NNW,338,0.0,0.0,43,0.00,,,0.00,LWC V2.10 B1813,2013-02-16 06:15:00,
2013-02-16 00:20:00,40.8,20.1,29.50,NNW,336,2.7,2.7,43,0.00,,,0.00,LWC V2.10 B1813,2013-02-16 06:20:00,
2013-02-16 00:25:00,40.6,20.5,29.50,NNW,333,0.0,0.0,44,0.00,,,0.00,LWC V2.10 B1813,2013-02-16 06:25:00,
2013-02-16 00:30:00,40.6,20.5,29.50,NW,321,2.7,3.1,44,0.00,,,0.00,LWC V2.10 B1813,2013-02-16 06:30:00,
2013-02-16 00:35:00,40.5,19.7,29.50,NW,309,3.1,4.9,43,0.00,,,0.00,LWC V2.10 B1813,2013-02-16 06:35:00,
2013-02-16 00:40:00,40.5,19.7,29.50,NNW,345,4.0,4.0,43,0.00,,,0.00,LWC V2.10 B1813,2013-02-16 06:40:00,
2013-02-16 00:45:00,40.6,19.9,29.50,NW,311,2.2,3.6,43,0.00,,,0.00,LWC V2.10 B1813,2013-02-16 06:45:00,
2013-02-16 00:50:00,40.5,19.7,29.50,NW,307,0.0,3.6,43,0.00,,,0.00,LWC V2.10 B1813,2013-02-16 06:50:00,
2013-02-16 00:55:00,40.3,19.6,29.50,NNW,329,2.7,3.1,43,0.00,,,0.00,LWC V2.10 B1813,2013-02-16 06:55:00,
2013-02-16 01:00:00,39.9,19.3,29.50,NNW,333,3.1,3.6,43,0.00,,,0.00,LWC V2.10 B1813,2013-02-16 07:00:00,
2013-02-16 01:05:00,39.7,19.1,29.50,North,353,0.0,3.6,43,0.00,,,0.00,LWC V2.10 B1813,2013-02-16 07:05:00,
2013-02-16 01:10:00,39.7,19.1,29.50,North,349,0.0,3.6,43,0.00,,,0.00,LWC V2.10 B1813,2013-02-16 07:10:00,
2013-02-16 01:15:00,39.7,19.6,29.50,NNW,330,3.6,3.6,44,0.00,,,0.00,LWC V2.10 B1813,2013-02-16 07:15:00,
2013-02-16 01:20:00,39.6,19.5,29.50,NW,311,2.2,2.7,44,0.00,,,0.00,LWC V2.10 B1813,2013-02-16 07:20:00,
2013-02-16 01:25:00,39.2,19.1,29.50,NW,308,2.7,2.7,44,0.00,,,0.00,LWC V2.10 B1813,2013-02-16 07:25:00,
2013-02-16 01:30:00,38.8,19.3,29.50,WNW,290,2.7,3.1,45,0.00,,,0.00,LWC V2.10 B1813,2013-02-16 07:30:00,
2013-02-16 01:35:00,38.5,19.0,29.50,WNW,298,2.7,2.7,45,0.00,,,0.00,LWC V2.10 B1813,2013-02-16 07:35:00,
2013-02-16 01:40:00,38.5,19.0,29.50,WNW,288,3.6,3.6,45,0.00,,,0.00,LWC V2.10 B1813,2013-02-16 07:40:00,
2013-02-16 01:45:00,38.5,19.5,29.50,WNW,301,2.7,3.6,46,0.00,,,0.00,LWC V2.10 B1813,2013-02-16 07:45:00,
2013-02-16 01:50:00,38.5,19.5,29.50,WNW,289,2.7,3.6,46,0.00,,,0.00,LWC V2.10 B1813,2013-02-16 07:50:00,
2013-02-16 01:55:00,38.1,19.2,29.50,West,275,3.1,3.6,46,0.00,,,0.00,LWC V2.10 B1813,2013-02-16 07:55:00,
2013-02-16 02:00:00,37.9,19.5,29.50,West,275,2.2,3.1,47,0.00,,,0.00,LWC V2.10 B1813,2013-02-16 08:00:00,
2013-02-16 02:01:00,37.9,19.5,29.50,West,272,2.7,2.7,47,0.00,,,0.00,LWC V2.10 B1813,2013-02-16 08:01:00,
2013-02-16 02:06:00,37.6,19.2,29.50,West,273,0.0,2.2,47,0.00,,,0.00,LWC V2.10 B1813,2013-02-16 08:06:00,
2013-02-16 02:11:00,37.6,19.7,29.50,WNW,297,2.7,2.7,48,0.00,,,0.00,LWC V2.10 B1813,2013-02-16 08:11:00,
2013-02-16 02:16:00,37.6,19.7,29.50,WNW,294,2.2,2.2,48,0.00,,,0.00,LWC V2.10 B1813,2013-02-16 08:16:00,
2013-02-16 02:21:00,37.4,19.5,29.50,WNW,298,0.0,0.0,48,0.00,,,0.00,LWC V2.10 B1813,2013-02-16 08:21:00,
2013-02-16 02:26:00,37.6,19.7,29.50,WNW,303,2.7,3.1,48,0.00,,,0.00,LWC V2.10 B1813,2013-02-16 08:26:00,
2013-02-16 02:31:00,37.6,19.7,29.50,WNW,295,2.2,3.6,48,0.00,,,0.00,LWC V2.10 B1813,2013-02-16 08:31:00,
2013-02-16 02:36:00,37.4,20.0,29.50,NW,315,0.0,2.2,49,0.00,,,0.00,LWC V2.10 B1813,2013-02-16 08:36:00,
2013-02-16 02:41:00,37.4,20.0,29.50,NNW,344,0.0,0.0,49,0.00,,,0.00,LWC V2.10 B1813,2013-02-16 08:41:00,
2013-02-16 02:46:00,37.2,19.8,29.50,NW,320,2.7,2.7,49,0.00,,,0.00,LWC V2.10 B1813,2013-02-16 08:46:00,
2013-02-16 02:51:00,37.2,19.8,29.50,NNW,333,3.1,3.1,49,0.00,,,0.00,LWC V2.10 B1813,2013-02-16 08:51:00,
2013-02-16 02:56:00,37.4,19.5,29.50,NNW,341,0.0,3.1,48,0.00,,,0.00,LWC V2.10 B1813,2013-02-16 08:56:00,
2013-02-16 03:01:00,37.4,19.5,29.47,NNW,328,0.0,0.0,48,0.00,,,0.00,LWC V2.10 B1813,2013-02-16 09:01:00,
2013-02-16 03:06:00,37.2,19.4,29.47,NNW,335,2.2,3.6,48,0.00,,,0.00,LWC V2.10 B1813,2013-02-16 09:06:00,
2013-02-16 03:11:00,37.2,18.9,29.47,NW,324,2.7,3.6,47,0.00,,,0.00,LWC V2.10 B1813,2013-02-16 09:11:00,
2013-02-16 03:16:00,36.9,19.0,29.50,NW,325,3.1,3.1,48,0.00,,,0.00,LWC V2.10 B1813,2013-02-16 09:16:00,
2013-02-16 03:21:00,36.3,18.5,29.50,NW,309,0.0,3.1,48,0.00,,,0.00,LWC V2.10 B1813,2013-02-16 09:21:00,
2013-02-16 03:26:00,36.1,18.4,29.50,NW,322,3.6,3.6,48,0.00,,,0.00,LWC V2.10 B1813,2013-02-16 09:26:00,
2013-02-16 03:31:00,36.1,18.4,29.50,NW,315,2.7,3.6,48,0.00,,,0.00,LWC V2.10 B1813,2013-02-16 09:31:00,
2013-02-16 03:36:00,35.8,18.0,29.50,NNW,328,4.9,4.9,48,0.00,,,0.00,LWC V2.10 B1813,2013-02-16 09:36:00,
2013-02-16 03:41:00,35.4,17.7,29.50,NNW,339,2.7,6.3,48,0.00,,,0.00,LWC V2.10 B1813,2013-02-16 09:41:00,
2013-02-16 03:46:00,35.2,18.0,29.50,NNW,337,2.2,4.0,49,0.00,,,0.00,LWC V2.10 B1813,2013-02-16 09:46:00,
2013-02-16 03:51:00,35.4,18.2,29.50,NW,326,0.0,3.6,49,0.00,,,0.00,LWC V2.10 B1813,2013-02-16 09:51:00,
2013-02-16 03:56:00,35.2,18.0,29.50,NNW,328,2.2,3.6,49,0.00,,,0.00,LWC V2.10 B1813,2013-02-16 09:56:00,
2013-02-16 04:01:00,35.2,18.0,29.50,NNW,340,2.7,3.6,49,0.00,,,0.00,LWC V2.10 B1813,2013-02-16 10:01:00,
2013-02-16 04:06:00,35.2,18.0,29.50,NW,315,2.7,2.7,49,0.00,,,0.00,LWC V2.10 B1813,2013-02-16 10:06:00,
2013-02-16 04:11:00,35.2,18.0,29.50,NNW,334,0.0,0.0,49,0.00,,,0.00,LWC V2.10 B1813,2013-02-16 10:11:00,
2013-02-16 04:16:00,34.9,17.7,29.50,NW,317,0.0,0.0,49,0.00,,,0.00,LWC V2.10 B1813,2013-02-16 10:16:00,
2013-02-16 04:21:00,34.5,17.8,29.50,NW,321,0.0,0.0,50,0.00,,,0.00,LWC V2.10 B1813,2013-02-16 10:21:00,
2013-02-16 04:26:00,34.5,17.8,29.50,NW,318,2.7,3.1,50,0.00,,,0.00,LWC V2.10 B1813,2013-02-16 10:26:00,
2013-02-16 04:31:00,34.5,17.8,29.50,NW,321,0.0,0.0,50,0.00,,,0.00,LWC V2.10 B1813,2013-02-16 10:31:00,
2013-02-16 04:36:00,34.5,17.8,29.50,NW,305,0.0,2.7,50,0.00,,,0.00,LWC V2.10 B1813,2013-02-16 10:36:00,
2013-02-16 04:41:00,34.5,17.8,29.50,WNW,293,2.7,3.6,50,0.00,,,0.00,LWC V2.10 B1813,2013-02-16 10:41:00,
2013-02-16 04:46:00,34.3,18.1,29.50,NW,319,2.2,2.2,51,0.00,,,0.00,LWC V2.10 B1813,2013-02-16 10:46:00,
2013-02-16 04:51:00,34.3,18.1,29.50,NW,305,2.2,2.2,51,0.00,,,0.00,LWC V2.10 B1813,2013-02-16 10:51:00,
2013-02-16 04:56:00,34.2,17.9,29.50,NW,310,0.0,3.1,51,0.00,,,0.00,LWC V2.10 B1813,2013-02-16 10:56:00,
2013-02-16 05:01:00,34.2,18.4,29.50,WNW,282,2.7,2.7,52,0.00,,,0.00,LWC V2.10 B1813,2013-02-16 11:01:00,
2013-02-16 05:06:00,34.0,18.2,29.50,WNW,299,0.0,2.7,52,0.00,,,0.00,LWC V2.10 B1813,2013-02-16 11:06:00,
2013-02-16 05:11:00,33.8,18.5,29.50,WNW,290,0.0,0.0,53,0.00,,,0.00,LWC V2.10 B1813,2013-02-16 11:11:00,
2013-02-16 05:16:00,33.8,18.9,29.50,WNW,290,2.2,3.1,54,0.00,,,0.00,LWC V2.10 B1813,2013-02-16 11:16:00,
2013-02-16 05:21:00,33.6,19.2,29.50,WNW,288,0.0,0.0,55,0.00,,,0.00,LWC V2.10 B1813,2013-02-16 11:21:00,
2013-02-16 05:26:00,33.6,19.6,29.50,WNW,290,2.2,2.7,56,0.00,,,0.00,LWC V2.10 B1813,2013-02-16 11:26:00,
2013-02-16 05:31:00,33.6,20.0,29.50,West,279,0.0,2.2,57,0.00,,,0.00,LWC V2.10 B1813,2013-02-16 11:31:00,
2013-02-16 05:36:00,33.3,20.1,29.50,West,278,0.0,0.0,58,0.00,,,0.00,LWC V2.10 B1813,2013-02-16 11:36:00,
2013-02-16 05:41:00,33.1,20.3,29.50,West,279,0.0,0.0,59,0.00,,,0.00,LWC V2.10 B1813,2013-02-16 11:41:00,
2013-02-16 05:46:00,32.9,20.6,29.50,West,271,0.0,2.7,60,0.00,,,0.00,LWC V2.10 B1813,2013-02-16 11:46:00,
2013-02-16 05:51:00,32.7,21.2,29.50,West,270,0.0,0.0,62,0.00,,,0.00,LWC V2.10 B1813,2013-02-16 11:51:00,
2013-02-16 05:56:00,32.7,21.5,29.50,West,267,2.7,3.1,63,0.00,,,0.00,LWC V2.10 B1813,2013-02-16 11:56:00,
2013-02-16 06:01:00,32.7,21.9,29.50,West,267,0.0,0.0,64,0.00,,,0.00,LWC V2.10 B1813,2013-02-16 12:01:00,
2013-02-16 06:06:00,32.7,21.9,29.50,West,267,0.0,0.0,64,0.00,,,0.00,LWC V2.10 B1813,2013-02-16 12:06:00,
2013-02-16 06:11:00,32.7,22.3,29.50,West,267,0.0,0.0,65,0.00,,,0.00,LWC V2.10 B1813,2013-02-16 12:11:00,
2013-02-16 06:16:00,32.7,21.9,29.50,West,267,0.0,0.0,64,0.00,,,0.00,LWC V2.10 B1813,2013-02-16 12:16:00,
2013-02-16 06:21:00,32.5,21.7,29.50,West,267,0.0,0.0,64,0.00,,,0.00,LWC V2.10 B1813,2013-02-16 12:21:00,
2013-02-16 06:26:00,32.5,21.7,29.50,West,267,0.0,0.0,64,0.00,,,0.00,LWC V2.10 B1813,2013-02-16 12:26:00,
2013-02-16 06:31:00,32.4,21.9,29.50,West,267,0.0,0.0,65,0.00,,,0.00,LWC V2.10 B1813,2013-02-16 12:31:00,
2013-02-16 06:36:00,32.2,21.8,29.50,West,267,0.0,0.0,65,0.00,,,0.00,LWC V2.10 B1813,2013-02-16 12:36:00,
2013-02-16 06:41:00,32.2,21.8,29.50,West,267,0.0,0.0,65,0.00,,,0.00,LWC V2.10 B1813,2013-02-16 12:41:00,
2013-02-16 06:46:00,32.2,21.8,29.53,West,265,0.0,0.0,65,0.00,,,0.00,LWC V2.10 B1813,2013-02-16 12:46:00,
2013-02-16 06:51:00,32.2,22.1,29.53,West,265,0.0,2.2,66,0.00,,,0.00,LWC V2.10 B1813,2013-02-16 12:51:00,
2013-02-16 06:56:00,32.2,22.1,29.53,West,263,3.1,3.1,66,0.00,,,0.00,LWC V2.10 B1813,2013-02-16 12:56:00,
2013-02-16 07:01:00,32.2,22.1,29.53,WSW,242,2.2,2.7,66,0.00,,,0.00,LWC V2.10 B1813,2013-02-16 13:01:00,
2013-02-16 07:06:00,32.0,22.3,29.53,West,269,3.1,3.1,67,0.00,,,0.00,LWC V2.10 B1813,2013-02-16 13:06:00,
2013-02-16 07:11:00,32.2,22.5,29.53,West,267,3.1,4.0,67,0.00,,,0.00,LWC V2.10 B1813,2013-02-16 13:11:00,
2013-02-16 07:16:00,32.2,22.5,29.53,West,280,3.1,3.1,67,0.00,,,0.00,LWC V2.10 B1813,2013-02-16 13:16:00,
2013-02-16 07:21:00,32.4,22.6,29.53,West,267,3.6,3.6,67,0.00,,,0.00,LWC V2.10 B1813,2013-02-16 13:21:00,
2013-02-16 07:26:00,32.4,23.0,29.53,West,267,2.7,2.7,68,0.00,,,0.00,LWC V2.10 B1813,2013-02-16 13:26:00,
2013-02-16 07:31:00,32.5,23.2,29.53,West,268,2.7,2.7,68,0.00,,,0.00,LWC V2.10 B1813,2013-02-16 13:31:00,
2013-02-16 07:36:00,32.5,23.2,29.53,West,262,3.6,3.6,68,0.00,,,0.00,LWC V2.10 B1813,2013-02-16 13:36:00,
2013-02-16 07:41:00,32.5,23.5,29.53,WSW,249,2.2,2.2,69,0.00,,,0.00,LWC V2.10 B1813,2013-02-16 13:41:00,
2013-02-16 07:46:00,32.4,23.3,29.53,West,266,2.7,3.1,69,0.00,,,0.00,LWC V2.10 B1813,2013-02-16 13:46:00,
2013-02-16 07:51:00,32.7,23.7,29.53,West,280,3.1,4.0,69,0.00,,,0.00,LWC V2.10 B1813,2013-02-16 13:51:00,
2013-02-16 07:56:00,32.7,23.7,29.53,West,281,2.7,3.6,69,0.00,,,0.00,LWC V2.10 B1813,2013-02-16 13:56:00,
2013-02-16 08:01:00,32.5,23.5,29.53,SW,236,3.6,4.0,69,0.00,,,0.00,LWC V2.10 B1813,2013-02-16 14:01:00,
2013-02-16 08:06:00,32.9,23.9,29.53,WSW,252,0.0,2.7,69,0.00,,,0.00,LWC V2.10 B1813,2013-02-16 14:06:00,
2013-02-16 08:11:00,33.1,24.4,29.53,WSW,257,0.0,0.0,70,0.00,,,0.00,LWC V2.10 B1813,2013-02-16 14:11:00,
2013-02-16 08:16:00,33.4,24.7,29.53,WNW,302,0.0,0.0,70,0.00,,,0.00,LWC V2.10 B1813,2013-02-16 14:16:00,
2013-02-16 08:21:00,33.8,24.7,29.53,NW,314,0.0,0.0,69,0.00,,,0.00,LWC V2.10 B1813,2013-02-16 14:21:00,
2013-02-16 08:26:00,34.2,25.1,29.53,West,271,2.7,3.1,69,0.00,,,0.00,LWC V2.10 B1813,2013-02-16 14:26:00,
2013-02-16 08:31:00,34.0,24.5,29.53,NW,313,0.0,2.7,68,0.00,,,0.00,LWC V2.10 B1813,2013-02-16 14:31:00,
2013-02-16 08:36:00,34.3,24.5,29.53,NW,305,3.6,4.0,67,0.00,,,0.00,LWC V2.10 B1813,2013-02-16 14:36:00,
2013-02-16 08:41:00,34.7,24.9,29.53,NW,315,2.7,3.6,67,0.00,,,0.00,LWC V2.10 B1813,2013-02-16 14:41:00,
2013-02-16 08:46:00,35.2,25.4,29.56,NW,306,4.0,4.0,67,0.00,,,0.00,LWC V2.10 B1813,2013-02-16 14:46:00,
2013-02-16 08:51:00,35.8,25.2,29.56,WNW,293,3.6,4.0,65,0.00,,,0.00,LWC V2.10 B1813,2013-02-16 14:51:00,
2013-02-16 08:56:00,36.5,25.5,29.56,WNW,300,4.0,5.4,64,0.00,,,0.00,LWC V2.10 B1813,2013-02-16 14:56:00,
2013-02-16 09:01:00,36.9,25.1,29.56,West,277,4.0,6.3,62,0.00,,,0.00,LWC V2.10 B1813,2013-02-16 15:01:00,
2013-02-16 09:04:00,36.9,25.1,29.56,WNW,297,3.6,4.9,62,0.00,,,0.00,LWC V2.10 B1813,2013-02-16 15:04:00,
2013-02-16 09:09:00,37.4,24.8,29.56,West,275,4.0,4.9,60,0.00,,,0.00,LWC V2.10 B1813,2013-02-16 15:09:00,
2013-02-16 09:14:00,37.9,25.3,29.56,WNW,285,3.6,4.0,60,0.00,,,0.00,LWC V2.10 B1813,2013-02-16 15:14:00,
2013-02-16 09:19:00,38.5,25.0,29.56,West,276,3.6,5.4,58,0.00,,,0.00,LWC V2.10 B1813,2013-02-16 15:19:00,
2013-02-16 09:24:00,39.6,25.6,29.56,West,266,3.6,3.6,57,0.00,,,0.00,LWC V2.10 B1813,2013-02-16 15:24:00,
2013-02-16 09:29:00,40.3,25.8,29.53,WNW,283,4.0,5.4,56,0.00,,,0.00,LWC V2.10 B1813,2013-02-16 15:29:00,
2013-02-16 09:34:00,41.0,25.6,29.53,West,267,4.9,5.8,54,0.00,,,0.00,LWC V2.10 B1813,2013-02-16 15:34:00,
2013-02-16 09:39:00,41.4,25.1,29.53,WSW,256,5.4,7.6,52,0.00,,,0.00,LWC V2.10 B1813,2013-02-16 15:39:00,
2013-02-16 09:44:00,41.9,25.1,29.53,WNW,285,5.4,8.3,51,0.00,,,0.00,LWC V2.10 B1813,2013-02-16 15:44:00,
2013-02-16 09:49:00,42.6,25.8,29.53,WSW,253,6.3,8.3,51,0.00,,,0.00,LWC V2.10 B1813,2013-02-16 15:49:00,
2013-02-16 09:54:00,43.9,26.5,29.53,WNW,283,5.4,5.8,50,0.00,,,0.00,LWC V2.10 B1813,2013-02-16 15:54:00,
2013-02-16 09:59:00,44.6,26.6,29.53,West,277,3.6,5.4,49,0.00,,,0.00,LWC V2.10 B1813,2013-02-16 15:59:00,
2013-02-16 10:04:00,44.6,26.1,29.53,West,260,5.4,5.4,48,0.00,,,0.00,LWC V2.10 B1813,2013-02-16 16:04:00,
2013-02-16 10:09:00,45.3,26.8,29.53,WNW,290,3.6,5.4,48,0.00,,,0.00,LWC V2.10 B1813,2013-02-16 16:09:00,
2013-02-16 10:14:00,45.5,26.5,29.53,West,278,6.7,8.3,47,0.00,,,0.00,LWC V2.10 B1813,2013-02-16 16:14:00,
2013-02-16 10:19:00,46.2,27.1,29.53,WNW,295,5.8,5.8,47,0.00,,,0.00,LWC V2.10 B1813,2013-02-16 16:19:00,
2013-02-16 10:24:00,46.6,26.4,29.53,West,281,5.8,8.3,45,0.00,,,0.00,LWC V2.10 B1813,2013-02-16 16:24:00,
2013-02-16 10:29:00,48.0,27.7,29.53,West,265,6.3,7.6,45,0.00,,,0.00,LWC V2.10 B1813,2013-02-16 16:29:00,
2013-02-16 10:34:00,48.0,27.2,29.53,West,272,6.3,6.3,44,0.00,,,0.00,LWC V2.10 B1813,2013-02-16 16:34:00,
2013-02-16 10:39:00,48.7,27.8,29.53,West,271,7.6,7.6,44,0.00,,,0.00,LWC V2.10 B1813,2013-02-16 16:39:00,
2013-02-16 10:44:00,48.7,26.7,29.53,WSW,251,7.6,9.2,42,0.00,,,0.00,LWC V2.10 B1813,2013-02-16 16:44:00,
2013-02-16 10:49:00,48.9,26.8,29.53,WNW,288,4.0,4.9,42,0.00,,,0.00,LWC V2.10 B1813,2013-02-16 16:49:00,
2013-02-16 10:54:00,50.0,27.2,29.53,SW,218,7.2,7.2,41,0.00,,,0.00,LWC V2.10 B1813,2013-02-16 16:54:00,
2013-02-16 10:59:00,50.7,27.9,29.53,WNW,286,6.3,8.3,41,0.00,,,0.00,LWC V2.10 B1813,2013-02-16 16:59:00,
2013-02-16 11:04:00,51.6,28.7,29.53,West,279,4.0,5.4,41,0.00,,,0.00,LWC V2.10 B1813,2013-02-16 17:04:00,
2013-02-16 11:09:00,52.3,28.7,29.53,West,275,3.1,10.1,40,0.00,,,0.00,LWC V2.10 B1813,2013-02-16 17:09:00,
2013-02-16 11:14:00,52.5,28.3,29.53,West,273,3.1,5.8,39,0.00,,,0.00,LWC V2.10 B1813,2013-02-16 17:14:00,
2013-02-16 11:19:00,52.9,28.6,29.53,WNW,283,3.6,9.6,39,0.00,,,0.00,LWC V2.10 B1813,2013-02-16 17:19:00,
2013-02-16 11:24:00,53.6,28.6,29.53,West,268,6.7,7.6,38,0.00,,,0.00,LWC V2.10 B1813,2013-02-16 17:24:00,
2013-02-16 11:29:00,54.5,29.4,29.53,NW,310,6.3,6.3,38,0.00,,,0.00,LWC V2.10 B1813,2013-02-16 17:29:00,
2013-02-16 11:34:00,54.5,28.8,29.53,WNW,288,8.1,8.1,37,0.00,,,0.00,LWC V2.10 B1813,2013-02-16 17:34:00,
2013-02-16 11:39:00,55.0,29.2,29.53,WNW,293,8.3,8.7,37,0.00,,,0.00,LWC V2.10 B1813,2013-02-16 17:39:00,
2013-02-16 11:44:00,55.0,29.2,29.50,West,277,7.6,8.7,37,0.00,,,0.00,LWC V2.10 B1813,2013-02-16 17:44:00,
2013-02-16 11:49:00,56.1,30.2,29.50,WNW,287,8.7,8.7,37,0.00,,,0.00,LWC V2.10 B1813,2013-02-16 17:49:00,
2013-02-16 11:54:00,55.6,29.1,29.50,West,278,5.8,8.1,36,0.00,,,0.00,LWC V2.10 B1813,2013-02-16 17:54:00,
2013-02-16 11:59:00,56.3,29.7,29.50,WNW,293,3.6,8.7,36,0.00,,,0.00,LWC V2.10 B1813,2013-02-16 17:59:00,
2013-02-16 12:04:00,56.3,29.7,29.50,WNW,291,3.6,5.4,36,0.00,,,0.00,LWC V2.10 B1813,2013-02-16 18:04:00,
2013-02-16 12:09:00,56.3,29.7,29.50,WNW,297,8.7,8.7,36,0.00,,,0.00,LWC V2.10 B1813,2013-02-16 18:09:00,
2013-02-16 12:14:00,56.7,30.0,29.50,SW,220,6.3,6.3,36,0.00,,,0.00,LWC V2.10 B1813,2013-02-16 18:14:00,
2013-02-16 12:19:00,56.8,29.5,29.50,SW,225,5.8,9.6,35,0.00,,,0.00,LWC V2.10 B1813,2013-02-16 18:19:00,
2013-02-16 12:24:00,57.2,29.8,29.50,West,265,0.0,5.4,35,0.00,,,0.00,LWC V2.10 B1813,2013-02-16 18:24:00,
2013-02-16 12:29:00,58.1,30.6,29.47,North,353,2.7,8.1,35,0.00,,,0.00,LWC V2.10 B1813,2013-02-16 18:29:00,
2013-02-16 12:34:00,58.1,30.6,29.47,NW,317,5.8,5.8,35,0.00,,,0.00,LWC V2.10 B1813,2013-02-16 18:34:00,
2013-02-16 12:39:00,58.6,31.1,29.47,NW,324,3.1,5.8,35,0.00,,,0.00,LWC V2.10 B1813,2013-02-16 18:39:00,
2013-02-16 12:44:00,58.8,31.2,29.47,SW,221,5.8,5.8,35,0.00,,,0.00,LWC V2.10 B1813,2013-02-16 18:44:00,
2013-02-16 12:49:00,58.6,31.1,29.47,NW,318,6.3,8.3,35,0.00,,,0.00,LWC V2.10 B1813,2013-02-16 18:49:00,
2013-02-16 12:54:00,58.1,30.6,29.47,SW,219,3.6,8.1,35,0.00,,,0.00,LWC V2.10 B1813,2013-02-16 18:54:00,
2013-02-16 12:59:00,58.8,31.2,29.47,WNW,285,5.8,9.6,35,0.00,,,0.00,LWC V2.10 B1813,2013-02-16 18:59:00,
2013-02-16 13:04:00,58.1,30.6,29.47,WNW,290,4.0,11.0,35,0.00,,,0.00,LWC V2.10 B1813,2013-02-16 19:04:00,
2013-02-16 13:09:00,58.8,31.2,29.47,NNW,327,2.7,4.0,35,0.00,,,0.00,LWC V2.10 B1813,2013-02-16 19:09:00,
2013-02-16 13:14:00,59.2,30.8,29.44,NW,304,5.8,10.5,34,0.00,,,0.00,LWC V2.10 B1813,2013-02-16 19:14:00,
2013-02-16 13:19:00,59.2,30.8,29.44,NNW,327,3.1,5.8,34,0.00,,,0.00,LWC V2.10 B1813,2013-02-16 19:19:00,
2013-02-16 13:24:00,59.2,30.8,29.44,WNW,302,7.6,8.3,34,0.00,,,0.00,LWC V2.10 B1813,2013-02-16 19:24:00,
2013-02-16 13:29:00,59.4,31.0,29.44,West,272,0.0,4.0,34,0.00,,,0.00,LWC V2.10 B1813,2013-02-16 19:29:00,
2013-02-16 13:34:00,59.2,30.8,29.44,SW,230,6.3,8.1,34,0.00,,,0.00,LWC V2.10 B1813,2013-02-16 19:34:00,
2013-02-16 13:39:00,59.9,30.7,29.44,WSW,252,5.8,6.3,33,0.00,,,0.00,LWC V2.10 B1813,2013-02-16 19:39:00,
2013-02-16 13:44:00,59.7,30.6,29.41,West,266,5.8,7.6,33,0.00,,,0.00,LWC V2.10 B1813,2013-02-16 19:44:00,
2013-02-16 13:49:00,60.1,30.9,29.41,WNW,290,5.4,8.7,33,0.00,,,0.00,LWC V2.10 B1813,2013-02-16 19:49:00,
2013-02-16 13:54:00,60.3,31.8,29.41,NNW,330,6.3,6.3,34,0.00,,,0.00,LWC V2.10 B1813,2013-02-16 19:54:00,
2013-02-16 13:59:00,60.6,31.4,29.41,West,261,8.3,8.7,33,0.00,,,0.00,LWC V2.10 B1813,2013-02-16 19:59:00,
2013-02-16 14:04:00,60.3,30.3,29.41,WNW,299,3.6,8.7,32,0.00,,,0.00,LWC V2.10 B1813,2013-02-16 20:04:00,
2013-02-16 14:09:00,60.4,30.4,29.41,West,275,6.7,8.3,32,0.00,,,0.00,LWC V2.10 B1813,2013-02-16 20:09:00,
2013-02-16 14:14:00,60.3,29.5,29.41,West,272,8.3,11.0,31,0.00,,,0.00,LWC V2.10 B1813,2013-02-16 20:14:00,
2013-02-16 14:19:00,60.3,29.5,29.41,SW,224,8.1,8.1,31,0.00,,,0.00,LWC V2.10 B1813,2013-02-16 20:19:00,
2013-02-16 14:24:00,60.8,30.0,29.41,WNW,299,8.1,8.1,31,0.00,,,0.00,LWC V2.10 B1813,2013-02-16 20:24:00,
2013-02-16 14:29:00,61.2,30.3,29.38,West,265,5.8,5.8,31,0.00,,,0.00,LWC V2.10 B1813,2013-02-16 20:29:00,
2013-02-16 14:34:00,61.3,29.6,29.38,West,274,6.3,10.5,30,0.00,,,0.00,LWC V2.10 B1813,2013-02-16 20:34:00,
2013-02-16 14:39:00,61.3,30.4,29.38,West,270,6.3,8.1,31,0.00,,,0.00,LWC V2.10 B1813,2013-02-16 20:39:00,
2013-02-16 14:44:00,61.2,29.5,29.38,NW,311,5.8,7.6,30,0.00,,,0.00,LWC V2.10 B1813,2013-02-16 20:44:00,
2013-02-16 14:49:00,61.3,29.6,29.38,WNW,285,6.3,8.3,30,0.00,,,0.00,LWC V2.10 B1813,2013-02-16 20:49:00,
2013-02-16 14:54:00,61.9,29.3,29.38,WSW,248,8.3,8.3,29,0.00,,,0.00,LWC V2.10 B1813,2013-02-16 20:54:00,
2013-02-16 14:59:00,62.2,29.6,29.38,SW,224,6.3,6.3,29,0.00,,,0.00,LWC V2.10 B1813,2013-02-16 20:59:00,
2013-02-16 15:04:00,62.4,29.7,29.38,WSW,241,4.9,6.3,29,0.00,,,0.00,LWC V2.10 B1813,2013-02-16 21:04:00,
2013-02-16 15:09:00,63.0,30.2,29.38,NW,304,6.3,6.3,29,0.00,,,0.00,LWC V2.10 B1813,2013-02-16 21:09:00,
2013-02-16 15:14:00,63.3,30.5,29.38,West,259,3.1,6.7,29,0.00,,,0.00,LWC V2.10 B1813,2013-02-16 21:14:00,
2013-02-16 15:19:00,63.9,31.8,29.38,West,271,3.6,5.8,30,0.00,,,0.00,LWC V2.10 B1813,2013-02-16 21:19:00,
2013-02-16 15:24:00,63.9,31.0,29.38,West,272,10.5,10.5,29,0.00,,,0.00,LWC V2.10 B1813,2013-02-16 21:24:00,
2013-02-16 15:29:00,63.1,30.4,29.35,NW,322,3.6,5.4,29,0.00,,,0.00,LWC V2.10 B1813,2013-02-16 21:29:00,
2013-02-16 15:34:00,64.2,31.3,29.35,West,266,4.0,5.4,29,0.00,,,0.00,LWC V2.10 B1813,2013-02-16 21:34:00,
2013-02-16 15:39:00,64.0,31.1,29.35,West,268,3.6,4.0,29,0.00,,,0.00,LWC V2.10 B1813,2013-02-16 21:39:00,
2013-02-16 15:44:00,64.0,30.3,29.35,NW,314,2.7,4.9,28,0.00,,,0.00,LWC V2.10 B1813,2013-02-16 21:44:00,
2013-02-16 15:49:00,64.8,30.9,29.35,NNW,346,5.4,5.4,28,0.00,,,0.00,LWC V2.10 B1813,2013-02-16 21:49:00,
2013-02-16 15:54:00,64.4,29.7,29.35,WSW,246,6.3,6.3,27,0.00,,,0.00,LWC V2.10 B1813,2013-02-16 21:54:00,
2013-02-16 15:59:00,64.2,30.4,29.35,SSW,213,2.2,3.1,28,0.00,,,0.00,LWC V2.10 B1813,2013-02-16 21:59:00,
2013-02-16 16:04:00,64.4,29.7,29.35,West,261,5.8,6.3,27,0.00,,,0.00,LWC V2.10 B1813,2013-02-16 22:04:00,
2013-02-16 16:09:00,64.2,28.6,29.35,SW,236,4.0,8.3,26,0.00,,,0.00,LWC V2.10 B1813,2013-02-16 22:09:00,
2013-02-16 16:14:00,64.0,28.5,29.35,SW,230,5.8,8.7,26,0.00,,,0.00,LWC V2.10 B1813,2013-02-16 22:14:00,
2013-02-16 16:19:00,64.4,27.8,29.35,SSW,212,3.6,4.0,25,0.00,,,0.00,LWC V2.10 B1813,2013-02-16 22:19:00,
2013-02-16 16:24:00,64.2,28.6,29.35,SW,229,8.1,8.1,26,0.00,,,0.00,LWC V2.10 B1813,2013-02-16 22:24:00,
2013-02-16 16:29:00,64.4,27.8,29.35,SSW,195,4.9,8.1,25,0.00,,,0.00,LWC V2.10 B1813,2013-02-16 22:29:00,
2013-02-16 16:34:00,64.8,29.1,29.35,West,262,5.8,6.3,26,0.00,,,0.00,LWC V2.10 B1813,2013-02-16 22:34:00,
2013-02-16 16:39:00,65.1,30.3,29.35,North,9,5.8,6.3,27,0.00,,,0.00,LWC V2.10 B1813,2013-02-16 22:39:00,
2013-02-16 16:44:00,64.9,29.2,29.32,WNW,299,3.1,3.6,26,0.00,,,0.00,LWC V2.10 B1813,2013-02-16 22:44:00,
2013-02-16 16:49:00,65.3,29.5,29.32,NW,320,0.0,4.5,26,0.00,,,0.00,LWC V2.10 B1813,2013-02-16 22:49:00,
2013-02-16 16:54:00,65.3,29.5,29.32,WNW,287,0.0,0.0,26,0.00,,,0.00,LWC V2.10 B1813,2013-02-16 22:54:00,
2013-02-16 16:59:00,64.8,28.1,29.32,WNW,289,6.7,6.7,25,0.00,,,0.00,LWC V2.10 B1813,2013-02-16 22:59:00,
2013-02-16 17:04:00,64.2,28.6,29.32,NW,314,3.1,5.8,26,0.00,,,0.00,LWC V2.10 B1813,2013-02-16 23:04:00,
2013-02-16 17:09:00,64.6,28.0,29.32,WSW,253,4.0,4.0,25,0.00,,,0.00,LWC V2.10 B1813,2013-02-16 23:09:00,
2013-02-16 17:14:00,64.2,27.7,29.32,SW,231,0.0,4.0,25,0.00,,,0.00,LWC V2.10 B1813,2013-02-16 23:14:00,
2013-02-16 17:19:00,64.6,28.0,29.32,SW,228,0.0,3.1,25,0.00,,,0.00,LWC V2.10 B1813,2013-02-16 23:19:00,
2013-02-16 17:24:00,64.8,28.1,29.32,WSW,239,2.2,2.2,25,0.00,,,0.00,LWC V2.10 B1813,2013-02-16 23:24:00,
2013-02-16 17:29:00,64.4,27.8,29.32,SSW,192,0.0,0.0,25,0.00,,,0.00,LWC V2.10 B1813,2013-02-16 23:29:00,
2013-02-16 17:34:00,64.9,29.2,29.32,SSW,192,0.0,0.0,26,0.00,,,0.00,LWC V2.10 B1813,2013-02-16 23:34:00,
2013-02-16 17:39:00,65.1,28.4,29.32,SE,131,0.0,0.0,25,0.00,,,0.00,LWC V2.10 B1813,2013-02-16 23:39:00,
2013-02-16 17:44:00,65.1,29.4,29.32,SE,131,0.0,0.0,26,0.00,,,0.00,LWC V2.10 B1813,2013-02-16 23:44:00,
2013-02-16 17:49:00,65.3,28.6,29.32,SE,131,0.0,0.0,25,0.00,,,0.00,LWC V2.10 B1813,2013-02-16 23:49:00,
2013-02-16 17:54:00,65.1,29.4,29.32,SE,131,0.0,0.0,26,0.00,,,0.00,LWC V2.10 B1813,2013-02-16 23:54:00,
2013-02-16 17:59:00,64.9,28.3,29.32,SE,131,0.0,0.0,25,0.00,,,0.00,LWC V2.10 B1813,2013-02-16 23:59:00,
2013-02-16 18:04:00,64.4,27.8,29.32,SE,131,0.0,0.0,25,0.00,,,0.00,LWC V2.10 B1813,2013-02-17 00:04:00,
2013-02-16 18:09:00,63.1,27.7,29.32,ENE,77,4.0,4.0,26,0.00,,,0.00,LWC V2.10 B1813,2013-02-17 00:09:00,
2013-02-16 18:14:00,61.5,27.2,29.32,ENE,76,2.2,4.0,27,0.00,,,0.00,LWC V2.10 B1813,2013-02-17 00:14:00,
2013-02-16 18:19:00,60.6,27.3,29.32,ENE,77,3.1,4.5,28,0.00,,,0.00,LWC V2.10 B1813,2013-02-17 00:19:00,
2013-02-16 18:24:00,60.1,26.9,29.32,East,79,3.1,3.1,28,0.00,,,0.00,LWC V2.10 B1813,2013-02-17 00:24:00,
2013-02-16 18:29:00,59.5,26.4,29.32,East,82,2.7,4.9,28,0.00,,,0.00,LWC V2.10 B1813,2013-02-17 00:29:00,
2013-02-16 18:34:00,59.2,26.1,29.32,ENE,72,3.6,4.9,28,0.00,,,0.00,LWC V2.10 B1813,2013-02-17 00:34:00,
2013-02-16 18:39:00,58.8,26.6,29.32,East,79,3.1,4.0,29,0.00,,,0.00,LWC V2.10 B1813,2013-02-17 00:39:00,
2013-02-16 18:44:00,58.6,26.5,29.32,East,83,3.1,3.6,29,0.00,,,0.00,LWC V2.10 B1813,2013-02-17 00:44:00,
2013-02-16 18:49:00,58.5,26.3,29.32,East,79,3.6,4.0,29,0.00,,,0.00,LWC V2.10 B1813,2013-02-17 00:49:00,
2013-02-16 18:54:00,58.3,26.2,29.32,ENE,68,3.6,4.0,29,0.00,,,0.00,LWC V2.10 B1813,2013-02-17 00:54:00,
2013-02-16 18:59:00,58.3,26.2,29.32,ENE,61,4.0,4.0,29,0.00,,,0.00,LWC V2.10 B1813,2013-02-17 00:59:00,
2013-02-16 19:04:00,58.1,26.0,29.32,ENE,72,3.6,4.0,29,0.00,,,0.00,LWC V2.10 B1813,2013-02-17 01:04:00,
2013-02-16 19:09:00,58.1,26.0,29.32,ENE,70,2.7,4.0,29,0.00,,,0.00,LWC V2.10 B1813,2013-02-17 01:09:00,
2013-02-16 19:14:00,57.9,25.9,29.29,NE,54,4.0,5.4,29,0.00,,,0.00,LWC V2.10 B1813,2013-02-17 01:14:00,
2013-02-16 19:19:00,57.6,26.4,29.29,ENE,78,2.2,4.9,30,0.00,,,0.00,LWC V2.10 B1813,2013-02-17 01:19:00,
2013-02-16 19:24:00,57.2,26.1,29.29,ENE,69,3.1,4.0,30,0.00,,,0.00,LWC V2.10 B1813,2013-02-17 01:24:00,
2013-02-16 19:29:00,57.2,26.1,29.32,ENE,64,3.6,3.6,30,0.00,,,0.00,LWC V2.10 B1813,2013-02-17 01:29:00,
2013-02-16 19:34:00,57.2,26.1,29.32,East,82,3.1,4.9,30,0.00,,,0.00,LWC V2.10 B1813,2013-02-17 01:34:00,
2013-02-16 19:39:00,57.2,26.8,29.32,East,93,3.6,4.0,31,0.00,,,0.00,LWC V2.10 B1813,2013-02-17 01:39:00,
2013-02-16 19:44:00,57.0,26.7,29.32,East,89,2.7,3.6,31,0.00,,,0.00,LWC V2.10 B1813,2013-02-17 01:44:00,
2013-02-16 19:49:00,56.7,27.1,29.32,ESE,104,5.8,5.8,32,0.00,,,0.00,LWC V2.10 B1813,2013-02-17 01:49:00,
2013-02-16 19:54:00,56.1,26.7,29.32,ESE,120,3.1,4.9,32,0.00,,,0.00,LWC V2.10 B1813,2013-02-17 01:54:00,
2013-02-16 19:59:00,56.1,26.7,29.32,ESE,117,3.1,5.4,32,0.00,,,0.00,LWC V2.10 B1813,2013-02-17 01:59:00,
2013-02-16 20:04:00,56.1,27.4,29.32,East,92,3.6,4.0,33,0.00,,,0.00,LWC V2.10 B1813,2013-02-17 02:04:00,
2013-02-16 20:09:00,56.1,26.7,29.32,East,94,3.6,4.0,32,0.00,,,0.00,LWC V2.10 B1813,2013-02-17 02:09:00,
2013-02-16 20:14:00,56.1,26.7,29.32,ESE,102,3.1,5.8,32,0.00,,,0.00,LWC V2.10 B1813,2013-02-17 02:14:00,
2013-02-16 20:19:00,55.8,27.1,29.32,ESE,103,5.8,7.6,33,0.00,,,0.00,LWC V2.10 B1813,2013-02-17 02:19:00,
2013-02-16 20:24:00,55.2,27.3,29.32,ESE,109,5.4,6.7,34,0.00,,,0.00,LWC V2.10 B1813,2013-02-17 02:24:00,
2013-02-16 20:29:00,55.2,27.3,29.32,East,84,4.0,5.8,34,0.00,,,0.00,LWC V2.10 B1813,2013-02-17 02:29:00,
2013-02-16 20:35:00,55.0,27.2,29.32,ESE,115,3.1,6.3,34,0.00,,,0.00,LWC V2.10 B1813,2013-02-17 02:35:00,
2013-02-16 20:40:00,54.7,27.6,29.32,SSE,153,3.6,6.3,35,0.00,,,0.00,LWC V2.10 B1813,2013-02-17 02:40:00,
2013-02-16 20:45:00,54.3,27.3,29.32,ESE,115,4.0,7.6,35,0.00,,,0.00,LWC V2.10 B1813,2013-02-17 02:45:00,
2013-02-16 20:50:00,54.1,27.1,29.32,ESE,105,3.6,6.3,35,0.00,,,0.00,LWC V2.10 B1813,2013-02-17 02:50:00,
2013-02-16 20:55:00,53.8,26.8,29.32,East,99,4.0,5.8,35,0.00,,,0.00,LWC V2.10 B1813,2013-02-17 02:55:00,
2013-02-16 21:00:00,53.8,26.8,29.32,SE,129,4.9,8.1,35,0.00,,,0.00,LWC V2.10 B1813,2013-02-17 03:00:00,
2013-02-16 21:04:00,53.4,27.1,29.32,SE,125,3.6,6.3,36,0.00,,,0.00,LWC V2.10 B1813,2013-02-17 03:04:00,
2013-02-16 21:09:00,53.2,27.0,29.32,East,98,3.6,5.8,36,0.00,,,0.00,LWC V2.10 B1813,2013-02-17 03:09:00,
2013-02-16 21:14:00,52.9,26.7,29.29,East,96,3.6,4.0,36,0.00,,,0.00,LWC V2.10 B1813,2013-02-17 03:14:00,
2013-02-16 21:20:00,52.9,26.7,29.29,East,83,3.1,5.4,36,0.00,,,0.00,LWC V2.10 B1813,2013-02-17 03:20:00,
2013-02-16 21:25:00,52.9,26.7,29.29,ENE,75,4.0,5.8,36,0.00,,,0.00,LWC V2.10 B1813,2013-02-17 03:25:00,
2013-02-16 21:30:00,52.9,26.7,29.32,SE,127,5.8,6.3,36,0.00,,,0.00,LWC V2.10 B1813,2013-02-17 03:30:00,
2013-02-16 21:35:00,52.9,26.7,29.32,East,88,5.4,6.7,36,0.00,,,0.00,LWC V2.10 B1813,2013-02-17 03:35:00,
2013-02-16 21:40:00,52.5,26.3,29.32,East,97,6.3,8.1,36,0.00,,,0.00,LWC V2.10 B1813,2013-02-17 03:40:00,
2013-02-16 21:45:00,52.5,26.3,29.32,SE,131,4.0,4.9,36,0.00,,,0.00,LWC V2.10 B1813,2013-02-17 03:45:00,
2013-02-16 21:50:00,52.0,25.9,29.32,East,98,4.0,6.3,36,0.00,,,0.00,LWC V2.10 B1813,2013-02-17 03:50:00,
2013-02-16 21:55:00,51.8,26.4,29.32,SSW,199,3.1,6.3,37,0.00,,,0.00,LWC V2.10 B1813,2013-02-17 03:55:00,
2013-02-16 22:00:00,51.6,26.2,29.32,East,89,3.1,4.9,37,0.00,,,0.00,LWC V2.10 B1813,2013-02-17 04:00:00,
2013-02-16 22:05:00,51.4,26.0,29.32,ESE,119,2.7,4.9,37,0.00,,,0.00,LWC V2.10 B1813,2013-02-17 04:05:00,
2013-02-16 22:10:00,51.1,25.7,29.32,SSE,152,2.7,3.6,37,0.00,,,0.00,LWC V2.10 B1813,2013-02-17 04:10:00,
2013-02-16 22:15:00,50.9,25.6,29.32,SE,136,0.0,4.0,37,0.00,,,0.00,LWC V2.10 B1813,2013-02-17 04:15:00,
2013-02-16 22:20:00,50.7,25.4,29.32,SSE,156,2.7,4.0,37,0.00,,,0.00,LWC V2.10 B1813,2013-02-17 04:20:00,
2013-02-16 22:25:00,50.4,25.1,29.32,SSE,147,4.0,4.0,37,0.00,,,0.00,LWC V2.10 B1813,2013-02-17 04:25:00,
2013-02-16 22:30:00,50.5,25.2,29.32,SSE,158,2.7,5.4,37,0.00,,,0.00,LWC V2.10 B1813,2013-02-17 04:30:00,
2013-02-16 22:35:00,50.4,25.1,29.32,SSE,147,0.0,0.0,37,0.00,,,0.00,LWC V2.10 B1813,2013-02-17 04:35:00,
2013-02-16 22:40:00,50.2,24.9,29.32,SE,124,0.0,0.0,37,0.00,,,0.00,LWC V2.10 B1813,2013-02-17 04:40:00,
2013-02-16 22:45:00,50.2,24.9,29.29,ESE,115,0.0,2.7,37,0.00,,,0.00,LWC V2.10 B1813,2013-02-17 04:45:00,
2013-02-16 22:50:00,50.5,25.2,29.29,SSE,155,2.7,5.4,37,0.00,,,0.00,LWC V2.10 B1813,2013-02-17 04:50:00,
2013-02-16 22:55:00,50.5,25.2,29.29,SE,146,3.1,5.8,37,0.00,,,0.00,LWC V2.10 B1813,2013-02-17 04:55:00,
2013-02-16 23:00:00,50.5,25.2,29.32,SSE,161,3.1,4.9,37,0.00,,,0.00,LWC V2.10 B1813,2013-02-17 05:00:00,
2013-02-16 23:05:00,50.5,25.2,29.32,South,169,4.0,4.5,37,0.00,,,0.00,LWC V2.10 B1813,2013-02-17 05:05:00,
2013-02-16 23:10:00,50.4,25.1,29.32,SSE,151,2.7,4.0,37,0.00,,,0.00,LWC V2.10 B1813,2013-02-17 05:10:00,
2013-02-16 23:15:00,50.4,25.1,29.32,SSE,151,2.7,4.0,37,0.00,,,0.00,LWC V2.10 B1813,2013-02-17 05:15:00,
2013-02-16 23:20:00,50.0,24.8,29.32,South,180,3.1,3.6,37,0.00,,,0.00,LWC V2.10 B1813,2013-02-17 05:20:00,
2013-02-16 23:25:00,50.0,24.8,29.32,SSE,159,2.7,3.6,37,0.00,,,0.00,LWC V2.10 B1813,2013-02-17 05:25:00,
2013-02-16 23:30:00,50.2,24.9,29.29,SSE,164,3.1,4.9,37,0.00,,,0.00,LWC V2.10 B1813,2013-02-17 05:30:00,
2013-02-16 23:34:00,50.2,24.9,29.29,SSE,164,4.0,4.0,37,0.00,,,0.00,LWC V2.10 B1813,2013-02-17 05:34:00,
2013-02-16 23:39:00,50.0,24.8,29.29,South,181,2.7,3.6,37,0.00,,,0.00,LWC V2.10 B1813,2013-02-17 05:39:00,
2013-02-16 23:44:00,50.2,24.9,29.29,South,178,0.0,3.6,37,0.00,,,0.00,LWC V2.10 B1813,2013-02-17 05:44:00,
2013-02-16 23:49:00,50.2,24.9,29.29,SSW,199,3.1,3.1,37,0.00,,,0.00,LWC V2.10 B1813,2013-02-17 05:49:00,
2013-02-16 23:54:00,50.4,25.1,29.29,South,178,0.0,0.0,37,0.00,,,0.00,LWC V2.10 B1813,2013-02-17 05:54:00,
2013-02-16 23:59:00,50.5,25.2,29.29,South,191,0.0,0.0,37,0.00,,,0.00,LWC V2.10 B1813,2013-02-17 05:59:00,